| time (UTC) | temp F | wind direction | speed MPH | gust MPH | rain 1hr in | rain 24hr in | rain mn in | humidity % | barometer mb |
| 20260504070126 | 52 | 187 | 0.0 | 0.0 | 0.00 | 0.00 | 0.00 | 79 | 1014.8 |
| 20260504050238 | 52 | 187 | 0.0 | 0.0 | 0.00 | 0.00 | 0.00 | 75 | 1015.6 |
| 20260504045728 | 52 | 187 | 0.0 | 0.0 | 0.00 | 0.00 | 0.00 | 76 | 1015.7 |
| 20260504045236 | 52 | 187 | 0.0 | 0.0 | 0.00 | 0.00 | 0.00 | 77 | 1015.8 |
| 20260504044742 | 52 | 187 | 0.0 | 0.0 | 0.00 | 0.00 | 0.00 | 79 | 1015.8 |
| 20260504044245 | 52 | 187 | 0.0 | 0.0 | 0.00 | 0.00 | 0.00 | 79 | 1015.9 |
| 20260504043724 | 52 | 187 | 0.0 | 0.0 | 0.00 | 0.00 | 0.00 | 79 | 1015.9 |
| 20260504043208 | 52 | 187 | 0.0 | 0.0 | 0.00 | 0.00 | 0.00 | 80 | 1015.9 |
| 20260504042704 | 51 | 187 | 0.0 | 0.0 | 0.00 | 0.00 | 0.00 | 79 | 1015.9 |
| 20260504042153 | 51 | 187 | 0.0 | 0.0 | 0.00 | 0.00 | 0.00 | 78 | 1015.9 |
| 20260504041636 | 51 | 187 | 0.0 | 0.0 | 0.00 | 0.00 | 0.00 | 78 | 1016.0 |
| 20260504041138 | 51 | 187 | 0.0 | 0.0 | 0.00 | 0.00 | 0.00 | 79 | 1016.0 |
| 20260504040636 | 51 | 187 | 0.0 | 0.0 | 0.00 | 0.00 | 0.00 | 78 | 1016.0 |
| 20260504040142 | 51 | 187 | 0.0 | 0.0 | 0.00 | 0.00 | 0.00 | 78 | 1016.1 |
| 20260504035648 | 51 | 187 | 0.0 | 0.0 | 0.00 | 0.00 | 0.00 | 78 | 1016.1 |
| 20260504035151 | 51 | 187 | 0.0 | 0.0 | 0.00 | 0.00 | 0.00 | 78 | 1016.1 |
| 20260504034634 | 51 | 187 | 0.0 | 0.0 | 0.00 | 0.00 | 0.00 | 77 | 1016.1 |
| 20260504034117 | 52 | 187 | 0.0 | 0.0 | 0.00 | 0.00 | 0.00 | 77 | 1016.1 |
| 20260504033616 | 52 | 187 | 0.0 | 0.0 | 0.00 | 0.00 | 0.00 | 76 | 1016.2 |
| 20260504033057 | 52 | 187 | 0.0 | 0.0 | 0.00 | 0.00 | 0.00 | 76 | 1016.2 |
| 20260504032537 | 52 | 187 | 0.0 | 0.0 | 0.00 | 0.00 | 0.00 | 76 | 1016.3 |
| 20260504032035 | 52 | 187 | 0.0 | 0.0 | 0.00 | 0.00 | 0.00 | 76 | 1016.2 |
| 20260504031526 | 52 | 187 | 0.0 | 0.0 | 0.00 | 0.00 | 0.00 | 74 | 1016.3 |
| 20260504031026 | 53 | 187 | 0.0 | 0.0 | 0.00 | 0.00 | 0.00 | 74 | 1016.4 |
| 20260504030519 | 53 | 187 | 0.0 | 0.0 | 0.00 | 0.00 | 0.00 | 73 | 1016.4 |
| 20260504030013 | 53 | 187 | 0.0 | 0.0 | 0.00 | 0.00 | 0.00 | 72 | 1016.5 |
| 20260504025456 | 53 | 187 | 0.0 | 0.0 | 0.00 | 0.00 | 0.00 | 71 | 1016.4 |
| 20260504024951 | 53 | 187 | 0.0 | 0.0 | 0.00 | 0.00 | 0.00 | 71 | 1016.3 |
| 20260504024438 | 53 | 187 | 0.0 | 0.0 | 0.00 | 0.00 | 0.00 | 70 | 1016.4 |
| 20260504023930 | 53 | 187 | 0.0 | 0.0 | 0.00 | 0.00 | 0.00 | 70 | 1016.4 |
| 20260504023428 | 54 | 187 | 0.0 | 0.0 | 0.00 | 0.00 | 0.00 | 69 | 1016.4 |
| 20260504022915 | 54 | 187 | 0.0 | 0.0 | 0.00 | 0.00 | 0.00 | 69 | 1016.4 |
| 20260504022415 | 54 | 187 | 0.0 | 0.0 | 0.00 | 0.00 | 0.00 | 68 | 1016.4 |
| 20260504021855 | 54 | 187 | 0.0 | 0.0 | 0.00 | 0.00 | 0.00 | 69 | 1016.3 |
| 20260504021348 | 54 | 187 | 0.0 | 0.0 | 0.00 | 0.00 | 0.00 | 68 | 1016.3 |
| 20260504020845 | 55 | 187 | 0.0 | 0.0 | 0.00 | 0.00 | 0.00 | 67 | 1016.3 |
| 20260504020330 | 55 | 187 | 0.0 | 0.0 | 0.00 | 0.00 | 0.00 | 66 | 1016.3 |
| 20260504015813 | 55 | 187 | 0.0 | 0.0 | 0.00 | 0.00 | 0.00 | 66 | 1016.3 |
| 20260504015304 | 56 | 187 | 0.0 | 0.0 | 0.00 | 0.00 | 0.00 | 64 | 1016.2 |
| 20260504014802 | 56 | 187 | 0.0 | 0.0 | 0.00 | 0.00 | 0.00 | 63 | 1016.2 |
| 20260504014303 | 56 | 187 | 0.0 | 0.0 | 0.00 | 0.00 | 0.00 | 62 | 1016.0 |
| 20260504013758 | 57 | 187 | 0.0 | 0.0 | 0.00 | 0.00 | 0.00 | 63 | 1016.0 |
| 20260504013303 | 57 | 187 | 0.0 | 0.0 | 0.00 | 0.00 | 0.00 | 62 | 1015.9 |
| 20260504012751 | 58 | 187 | 0.0 | 0.0 | 0.00 | 0.00 | 0.00 | 61 | 1016.0 |
| 20260504012246 | 58 | 187 | 0.0 | 0.0 | 0.00 | 0.00 | 0.00 | 61 | 1015.9 |
| 20260504011724 | 59 | 187 | 0.0 | 0.0 | 0.00 | 0.00 | 0.00 | 60 | 1015.8 |
| 20260504011227 | 59 | 187 | 0.0 | 0.0 | 0.00 | 0.00 | 0.00 | 59 | 1015.8 |
| 20260504010716 | 60 | 187 | 0.0 | 0.0 | 0.00 | 0.00 | 0.00 | 60 | 1015.7 |
| 20260504010212 | 60 | 187 | 0.0 | 0.0 | 0.00 | 0.00 | 0.00 | 59 | 1015.7 |
| 20260504005708 | 61 | 187 | 0.0 | 0.0 | 0.00 | 0.00 | 0.00 | 58 | 1015.7 |
| 20260504005148 | 61 | 187 | 0.0 | 0.0 | 0.00 | 0.00 | 0.00 | 55 | 1015.8 |
| 20260504004642 | 62 | 187 | 0.0 | 0.0 | 0.00 | 0.00 | 0.00 | 56 | 1015.8 |
| 20260504004132 | 63 | 187 | 0.0 | 0.0 | 0.00 | 0.00 | 0.00 | 54 | 1015.9 |
| 20260504003621 | 63 | 187 | 0.0 | 0.0 | 0.00 | 0.00 | 0.00 | 53 | 1015.9 |
| 20260504003122 | 64 | 188 | 0.0 | 0.0 | 0.00 | 0.00 | 0.00 | 48 | 1015.9 |
| 20260504002628 | 64 | 188 | 0.0 | 0.0 | 0.00 | 0.00 | 0.00 | 47 | 1015.9 |
| 20260504002113 | 65 | 188 | 0.0 | 0.0 | 0.00 | 0.00 | 0.00 | 47 | 1016.0 |
| 20260504001613 | 65 | 188 | 0.0 | 0.0 | 0.00 | 0.00 | 0.00 | 46 | 1016.1 |
| 20260504001107 | 65 | 188 | 0.0 | 0.0 | 0.00 | 0.00 | 0.00 | 45 | 1016.2 |
| 20260504000559 | 66 | 188 | 0.0 | 0.0 | 0.00 | 0.00 | 0.00 | 45 | 1016.3 |
| 20260504000039 | 66 | 122 | 0.0 | 0.0 | 0.00 | 0.00 | 0.00 | 47 | 1016.4 |
| 20260503235521 | 66 | 105 | 0.0 | 0.0 | 0.00 | 0.00 | 0.00 | 45 | 1016.4 |
| 20260503235018 | 67 | 105 | 0.0 | 0.0 | 0.00 | 0.00 | 0.00 | 45 | 1016.4 |
| 20260503234523 | 67 | 105 | 0.0 | 0.0 | 0.00 | 0.00 | 0.00 | 43 | 1016.4 |
| 20260503234002 | 67 | 136 | 0.0 | 0.0 | 0.00 | 0.00 | 0.00 | 43 | 1016.6 |
| 20260503233455 | 67 | 30 | 0.0 | 0.0 | 0.00 | 0.00 | 0.00 | 44 | 1016.5 |
| 20260503232958 | 68 | 244 | 0.0 | 0.0 | 0.00 | 0.00 | 0.00 | 45 | 1016.7 |
| 20260503232455 | 68 | 155 | 0.0 | 1.0 | 0.00 | 0.00 | 0.00 | 42 | 1016.7 |
| 20260503232000 | 68 | 116 | 0.0 | 0.0 | 0.00 | 0.00 | 0.00 | 43 | 1016.7 |
| 20260503231500 | 68 | 114 | 0.0 | 0.0 | 0.00 | 0.00 | 0.00 | 41 | 1016.7 |
| 20260503230942 | 68 | 153 | 0.0 | 1.0 | 0.00 | 0.00 | 0.00 | 40 | 1016.8 |
| 20260503230439 | 69 | 108 | 0.0 | 0.0 | 0.00 | 0.00 | 0.00 | 39 | 1016.8 |
| 20260503225926 | 69 | 144 | 0.0 | 1.0 | 0.00 | 0.00 | 0.00 | 38 | 1016.8 |
| 20260503225408 | 69 | 144 | 0.0 | 2.0 | 0.00 | 0.00 | 0.00 | 40 | 1017.0 |
| 20260503224912 | 69 | 55 | 0.0 | 5.0 | 0.00 | 0.00 | 0.00 | 39 | 1017.0 |
| 20260503224413 | 69 | 65 | 0.0 | 0.0 | 0.00 | 0.00 | 0.00 | 40 | 1016.9 |
| 20260503223906 | 70 | 114 | 0.0 | 0.0 | 0.00 | 0.00 | 0.00 | 40 | 1016.9 |
| 20260503223413 | 70 | 222 | 0.0 | 1.0 | 0.00 | 0.00 | 0.00 | 37 | 1017.0 |
| 20260503222911 | 70 | 134 | 0.0 | 0.0 | 0.00 | 0.00 | 0.00 | 38 | 1017.1 |
| 20260503222404 | 70 | 160 | 0.0 | 0.0 | 0.00 | 0.00 | 0.00 | 37 | 1017.2 |
| 20260503221851 | 71 | 131 | 0.0 | 3.0 | 0.00 | 0.00 | 0.00 | 37 | 1017.3 |
| 20260503221359 | 71 | 186 | 0.0 | 0.0 | 0.00 | 0.00 | 0.00 | 37 | 1017.3 |
| 20260503220850 | 71 | 165 | 0.0 | 0.0 | 0.00 | 0.00 | 0.00 | 38 | 1017.4 |
| 20260503220341 | 71 | 255 | 0.0 | 2.0 | 0.00 | 0.00 | 0.00 | 37 | 1017.6 |
| 20260503215834 | 71 | 167 | 0.0 | 6.0 | 0.00 | 0.00 | 0.00 | 37 | 1017.6 |
| 20260503215322 | 71 | 134 | 0.0 | 2.0 | 0.00 | 0.00 | 0.00 | 35 | 1017.7 |
| 20260503214810 | 71 | 177 | 0.0 | 1.0 | 0.00 | 0.00 | 0.00 | 36 | 1017.7 |
| 20260503214317 | 71 | 156 | 0.0 | 2.0 | 0.00 | 0.00 | 0.00 | 35 | 1017.7 |
| 20260503213757 | 71 | 207 | 0.0 | 2.0 | 0.00 | 0.00 | 0.00 | 37 | 1017.9 |
| 20260503213238 | 71 | 250 | 0.0 | 2.0 | 0.00 | 0.00 | 0.00 | 38 | 1017.9 |
| 20260503212744 | 71 | 189 | 0.0 | 4.0 | 0.00 | 0.00 | 0.00 | 35 | 1018.1 |
| 20260503212242 | 71 | 163 | 0.0 | 4.0 | 0.00 | 0.00 | 0.00 | 37 | 1018.2 |
| 20260503211731 | 71 | 210 | 0.0 | 4.0 | 0.00 | 0.00 | 0.00 | 36 | 1018.3 |
| 20260503211211 | 71 | 264 | 0.0 | 4.0 | 0.00 | 0.00 | 0.00 | 36 | 1018.3 |
| 20260503210656 | 71 | 128 | 0.0 | 3.0 | 0.00 | 0.00 | 0.00 | 37 | 1018.4 |
| 20260503210201 | 71 | 326 | 0.0 | 3.0 | 0.00 | 0.00 | 0.00 | 37 | 1018.5 |
| 20260503205658 | 71 | 184 | 0.0 | 2.0 | 0.00 | 0.00 | 0.00 | 37 | 1018.6 |
| 20260503205151 | 70 | 109 | 0.0 | 0.0 | 0.00 | 0.00 | 0.00 | 37 | 1018.7 |
| 20260503204629 | 70 | 143 | 0.0 | 4.0 | 0.00 | 0.00 | 0.00 | 36 | 1018.8 |
| 20260503204134 | 70 | 66 | 0.0 | 4.0 | 0.00 | 0.00 | 0.00 | 36 | 1018.9 |
| 20260503203640 | 71 | 93 | 0.0 | 4.0 | 0.00 | 0.00 | 0.00 | 36 | 1019.0 |
| 20260503203134 | 71 | 123 | 0.0 | 3.0 | 0.00 | 0.00 | 0.00 | 36 | 1019.1 |
| 20260503202620 | 71 | 141 | 0.0 | 0.0 | 0.00 | 0.00 | 0.00 | 40 | 1019.2 |
| 20260503202109 | 71 | 255 | 0.0 | 4.0 | 0.00 | 0.00 | 0.00 | 37 | 1019.4 |
| 20260503201605 | 70 | 133 | 0.0 | 3.0 | 0.00 | 0.00 | 0.00 | 40 | 1019.4 |
| 20260503201045 | 71 | 267 | 0.0 | 3.0 | 0.00 | 0.00 | 0.00 | 36 | 1019.6 |
| 20260503200529 | 70 | 150 | 0.0 | 0.0 | 0.00 | 0.00 | 0.00 | 37 | 1019.8 |
| 20260503200012 | 70 | 201 | 0.0 | 4.0 | 0.00 | 0.00 | 0.00 | 37 | 1020.0 |
| 20260503195503 | 70 | 178 | 0.0 | 5.0 | 0.00 | 0.00 | 0.00 | 37 | 1020.2 |
| 20260503194947 | 70 | 188 | 0.0 | 4.0 | 0.00 | 0.00 | 0.00 | 37 | 1020.2 |
| 20260503194434 | 70 | 278 | 0.0 | 4.0 | 0.00 | 0.00 | 0.00 | 37 | 1020.2 |
| 20260503193917 | 70 | 153 | 0.0 | 1.0 | 0.00 | 0.00 | 0.00 | 35 | 1020.4 |
| 20260503193410 | 70 | 113 | 0.0 | 5.0 | 0.00 | 0.00 | 0.00 | 38 | 1020.4 |
| 20260503192853 | 70 | 296 | 0.0 | 5.0 | 0.00 | 0.00 | 0.00 | 38 | 1020.6 |
| 20260503192355 | 70 | 133 | 0.0 | 3.0 | 0.00 | 0.00 | 0.00 | 38 | 1020.7 |
| 20260503191844 | 69 | 192 | 0.0 | 1.0 | 0.00 | 0.00 | 0.00 | 38 | 1020.7 |
| 20260503191323 | 69 | 213 | 0.0 | 1.0 | 0.00 | 0.00 | 0.00 | 38 | 1020.8 |
| 20260503190830 | 69 | 110 | 0.0 | 4.0 | 0.00 | 0.00 | 0.00 | 37 | 1020.9 |
| 20260503190317 | 69 | 262 | 0.0 | 4.0 | 0.00 | 0.00 | 0.00 | 41 | 1021.0 |
| 20260503185758 | 69 | 256 | 0.0 | 4.0 | 0.00 | 0.00 | 0.00 | 39 | 1021.0 |
| 20260503185239 | 69 | 236 | 0.0 | 4.0 | 0.00 | 0.00 | 0.00 | 37 | 1021.0 |
| 20260503184717 | 68 | 125 | 0.0 | 5.0 | 0.00 | 0.00 | 0.00 | 39 | 1021.1 |
| 20260503184220 | 68 | 174 | 0.0 | 5.0 | 0.00 | 0.00 | 0.00 | 37 | 1021.1 |
| 20260503183726 | 69 | 116 | 0.0 | 2.0 | 0.00 | 0.00 | 0.00 | 38 | 1021.2 |
| 20260503183209 | 68 | 118 | 0.0 | 0.0 | 0.00 | 0.00 | 0.00 | 39 | 1021.3 |
| 20260503182714 | 68 | 143 | 0.0 | 3.0 | 0.00 | 0.00 | 0.00 | 38 | 1021.3 |
| 20260503182211 | 68 | 136 | 0.0 | 1.0 | 0.00 | 0.00 | 0.00 | 38 | 1021.4 |
| 20260503181651 | 68 | 193 | 0.0 | 0.0 | 0.00 | 0.00 | 0.00 | 42 | 1021.5 |
| 20260503181144 | 67 | 258 | 0.0 | 0.0 | 0.00 | 0.00 | 0.00 | 41 | 1021.6 |
| 20260503180624 | 67 | 23 | 0.0 | 5.0 | 0.00 | 0.00 | 0.00 | 38 | 1021.6 |
| 20260503180113 | 68 | 46 | 0.0 | 5.0 | 0.00 | 0.00 | 0.00 | 38 | 1021.7 |
| 20260503175555 | 67 | 205 | 0.0 | 2.0 | 0.00 | 0.00 | 0.00 | 42 | 1021.8 |
| 20260503175048 | 67 | 103 | 0.0 | 2.0 | 0.00 | 0.00 | 0.00 | 38 | 1021.9 |
| 20260503174539 | 67 | 10 | 0.0 | 2.0 | 0.00 | 0.00 | 0.00 | 40 | 1021.9 |
| 20260503174027 | 67 | 229 | 0.0 | 2.0 | 0.00 | 0.00 | 0.00 | 41 | 1022.0 |
| 20260503173523 | 67 | 220 | 0.0 | 2.0 | 0.00 | 0.00 | 0.00 | 41 | 1022.2 |
| 20260503173027 | 66 | 160 | 0.0 | 0.0 | 0.00 | 0.00 | 0.00 | 41 | 1022.3 |
| 20260503172533 | 66 | 302 | 0.0 | 1.0 | 0.00 | 0.00 | 0.00 | 41 | 1022.4 |
| 20260503172022 | 66 | 199 | 0.0 | 1.0 | 0.00 | 0.00 | 0.00 | 41 | 1022.4 |
| 20260503171526 | 66 | 215 | 0.0 | 1.0 | 0.00 | 0.00 | 0.00 | 41 | 1022.5 |
| 20260503171005 | 66 | 148 | 0.0 | 1.0 | 0.00 | 0.00 | 0.00 | 43 | 1022.6 |
| 20260503170507 | 66 | 200 | 0.0 | 0.0 | 0.00 | 0.00 | 0.00 | 42 | 1022.6 |
| 20260503150642 | 59 | 212 | 0.0 | 1.0 | 0.00 | 0.00 | 0.00 | 55 | 1023.6 |
| 20260503150123 | 59 | 157 | 0.0 | 0.0 | 0.00 | 0.00 | 0.00 | 56 | 1023.6 |
| 20260503131308 | 46 | 155 | 0.0 | 0.0 | 0.00 | 0.00 | 0.00 | 96 | 1023.7 |
| 20260503130753 | 45 | 155 | 0.0 | 0.0 | 0.00 | 0.00 | 0.00 | 96 | 1023.7 |
| 20260503130244 | 44 | 155 | 0.0 | 0.0 | 0.00 | 0.00 | 0.00 | 96 | 1023.7 |
| 20260503110442 | 38 | 52 | 0.0 | 0.0 | 0.00 | 0.00 | 0.00 | 95 | 1022.7 |
| 20260503100249 | 38 | 51 | 0.0 | 0.0 | 0.00 | 0.00 | 0.00 | 95 | 1022.3 |
| 20260503090115 | 39 | 51 | 0.0 | 0.0 | 0.00 | 0.00 | 0.00 | 95 | 1022.3 |
| 20260503081404 | 39 | 51 | 0.0 | 0.0 | 0.00 | 0.00 | 0.00 | 94 | 1022.2 |
| 20260503080856 | 39 | 51 | 0.0 | 0.0 | 0.00 | 0.00 | 0.00 | 94 | 1022.1 |
| 20260503080359 | 39 | 51 | 0.0 | 0.0 | 0.00 | 0.00 | 0.00 | 94 | 1022.1 |
| 20260503072809 | 39 | 51 | 0.0 | 0.0 | 0.00 | 0.00 | 0.00 | 94 | 1022.0 |
| 20260503072306 | 40 | 51 | 0.0 | 0.0 | 0.00 | 0.00 | 0.00 | 94 | 1022.0 |